OMS515 OOMS-OPKC

Flight info

Callsign OMS515
Flight time 1h 13m
Altitude 33000
Route DCT MCT G216 LAKIV LAKIV1B
Aircraft A20N/M-SDE2E3FGHIRWXY/LB1

Departure

Time 2026-04-30 19:01
Airport Muscat International Airport (OOMS)

Arrival

Time 2026-04-30 20:14
Airport Jinnah International Airport (OPKC)
Time Latitude Longitude Altitude Speed Heading
2026-04-30 18:45 23.59723 58.28814 30 ft 0 kts 265°
2026-04-30 18:50 23.59724 58.28834 31 ft 4 kts 265°
2026-04-30 18:51 23.59726 58.28862 30 ft 4 kts 263°
2026-04-30 18:51 23.59731 58.28889 31 ft 4 kts 247°
2026-04-30 18:51 23.59744 58.28911 31 ft 4 kts 208°
2026-04-30 18:51 23.59758 58.28915 31 ft 1 kts 175°
2026-04-30 18:52 23.59760 58.28915 31 ft 0 kts 175°
2026-04-30 18:55 23.59745 58.28915 31 ft 0 kts 184°
2026-04-30 18:56 23.59741 58.28916 31 ft 2 kts 171°
2026-04-30 18:57 23.59610 58.28932 31 ft 16 kts 169°
2026-04-30 18:57 23.59566 58.29036 31 ft 16 kts 86°
2026-04-30 18:57 23.59577 58.29181 31 ft 22 kts 85°
2026-04-30 18:58 23.59606 58.29544 31 ft 25 kts 83°
2026-04-30 18:58 23.59621 58.29728 31 ft 22 kts 85°
2026-04-30 18:58 23.59635 58.29903 31 ft 24 kts 84°
2026-04-30 18:59 23.59582 58.30186 31 ft 17 kts 158°
2026-04-30 19:00 23.59444 58.30077 31 ft 0 kts 264°
2026-04-30 19:00 23.59388 58.29412 32 ft 121 kts 265°
2026-04-30 19:01 23.59184 58.26835 765 ft 194 kts 265°
2026-04-30 19:01 23.59085 58.25317 1459 ft 207 kts 266°
2026-04-30 19:02 23.57581 58.22413 2060 ft 253 kts 211°
2026-04-30 19:02 23.54096 58.22706 3219 ft 275 kts 139°
2026-04-30 19:03 23.52925 58.26544 4584 ft 284 kts 79°
2026-04-30 19:03 23.54070 58.30687 6023 ft 287 kts 67°
2026-04-30 19:04 23.55499 58.34813 7474 ft 294 kts 69°
2026-04-30 19:04 23.56821 58.39082 8917 ft 302 kts 72°
2026-04-30 19:05 23.57862 58.42766 10091 ft 309 kts 74°
2026-04-30 19:05 23.59150 58.47495 10685 ft 348 kts 74°
2026-04-30 19:06 23.60618 58.52876 10937 ft 390 kts 73°
2026-04-30 19:06 23.61414 58.55766 11277 ft 402 kts 73°
2026-04-30 19:06 23.63039 58.61667 12412 ft 409 kts 73°
2026-04-30 19:07 23.64692 58.67678 13566 ft 417 kts 73°
2026-04-30 19:07 23.65526 58.70706 13932 ft 424 kts 73°
2026-04-30 19:08 23.67227 58.76920 14895 ft 429 kts 73°
2026-04-30 19:08 23.68652 58.83243 16070 ft 429 kts 80°
2026-04-30 19:08 23.69178 58.86452 16696 ft 428 kts 80°
2026-04-30 19:09 23.70231 58.92830 18098 ft 424 kts 80°
2026-04-30 19:09 23.70756 58.95986 18769 ft 420 kts 80°
2026-04-30 19:09 23.71278 58.99125 19466 ft 416 kts 80°
2026-04-30 19:10 23.72294 59.05291 20890 ft 409 kts 80°
2026-04-30 19:10 23.73274 59.11335 22384 ft 399 kts 79°
2026-04-30 19:11 23.73749 59.14261 23156 ft 394 kts 79°
2026-04-30 19:11 23.74693 59.20059 24447 ft 384 kts 79°
2026-04-30 19:11 23.75165 59.22960 24702 ft 392 kts 79°
2026-04-30 19:12 23.75651 59.25949 24791 ft 406 kts 79°
2026-04-30 19:12 23.76154 59.29041 24820 ft 421 kts 79°
2026-04-30 19:12 23.76676 59.32243 24818 ft 436 kts 79°
2026-04-30 19:13 23.77770 59.38976 24815 ft 463 kts 80°
2026-04-30 19:13 23.78911 59.46082 24813 ft 486 kts 80°
2026-04-30 19:13 23.79504 59.49784 24813 ft 497 kts 80°
2026-04-30 19:14 23.80098 59.53495 25279 ft 493 kts 80°
2026-04-30 19:14 23.80675 59.57113 25964 ft 486 kts 80°
2026-04-30 19:14 23.81253 59.60717 26671 ft 478 kts 80°
2026-04-30 19:14 23.81821 59.64264 27404 ft 470 kts 80°
2026-04-30 19:15 23.82374 59.67751 28150 ft 462 kts 81°
2026-04-30 19:15 23.83445 59.74539 29722 ft 444 kts 81°
2026-04-30 19:15 23.83966 59.77841 30425 ft 434 kts 81°
2026-04-30 19:16 23.84476 59.81058 31100 ft 424 kts 81°
2026-04-30 19:16 23.84977 59.84205 31766 ft 416 kts 81°
2026-04-30 19:16 23.85976 59.90553 31808 ft 437 kts 81°
2026-04-30 19:17 23.86498 59.93868 31808 ft 447 kts 81°
2026-04-30 19:17 23.87574 60.00685 31813 ft 467 kts 81°
2026-04-30 19:17 23.88124 60.04181 32205 ft 465 kts 81°
2026-04-30 19:18 23.89037 60.10019 32754 ft 467 kts 81°
2026-04-30 19:18 23.89767 60.14699 32809 ft 477 kts 81°
2026-04-30 19:19 23.90901 60.21980 32803 ft 494 kts 81°
2026-04-30 19:19 23.92671 60.33352 32802 ft 516 kts 81°
2026-04-30 19:20 23.93876 60.41134 32796 ft 520 kts 81°
2026-04-30 19:21 23.95684 60.52870 32795 ft 521 kts 81°
2026-04-30 19:22 23.98068 60.68458 32787 ft 521 kts 81°
2026-04-30 19:23 24.01616 60.91920 32786 ft 521 kts 81°
2026-04-30 19:24 24.03393 61.03685 32782 ft 522 kts 81°
2026-04-30 19:25 24.06332 61.23284 32787 ft 522 kts 81°
2026-04-30 19:26 24.08650 61.39003 32789 ft 522 kts 81°
2026-04-30 19:27 24.10371 61.50781 32781 ft 522 kts 81°
2026-04-30 19:28 24.12089 61.62568 32777 ft 522 kts 81°
2026-04-30 19:29 24.14380 61.78319 32774 ft 521 kts 81°
2026-04-30 19:30 24.16546 61.94047 32771 ft 521 kts 82°
2026-04-30 19:31 24.18646 62.09772 32764 ft 521 kts 82°
2026-04-30 19:31 24.20235 62.21548 32762 ft 520 kts 82°
2026-04-30 19:32 24.21287 62.29398 32749 ft 520 kts 82°
2026-04-30 19:32 24.22322 62.37243 32745 ft 520 kts 82°
2026-04-30 19:33 24.23190 62.43754 32756 ft 520 kts 82°
2026-04-30 19:33 24.24236 62.51621 32748 ft 520 kts 82°
2026-04-30 19:34 24.25262 62.59419 32744 ft 520 kts 82°
2026-04-30 19:35 24.26803 62.71198 32753 ft 520 kts 82°
2026-04-30 19:35 24.27822 62.79060 32748 ft 519 kts 82°
2026-04-30 19:36 24.28826 62.86848 32743 ft 519 kts 82°
2026-04-30 19:36 24.30346 62.98603 32750 ft 519 kts 82°
2026-04-30 19:37 24.31357 63.06451 32749 ft 519 kts 82°
2026-04-30 19:37 24.32362 63.14301 32747 ft 519 kts 82°
2026-04-30 19:38 24.33360 63.22158 32745 ft 519 kts 82°
2026-04-30 19:38 24.34356 63.30005 32748 ft 519 kts 82°
2026-04-30 19:39 24.35343 63.37802 32750 ft 518 kts 82°
2026-04-30 19:39 24.36324 63.45643 32748 ft 518 kts 82°
2026-04-30 19:40 24.37304 63.53488 32745 ft 518 kts 82°
2026-04-30 19:40 24.38271 63.61271 32743 ft 518 kts 82°
2026-04-30 19:41 24.39243 63.69110 32743 ft 518 kts 82°
2026-04-30 19:41 24.40213 63.76940 32736 ft 517 kts 82°
2026-04-30 19:42 24.41181 63.84766 32735 ft 517 kts 82°
2026-04-30 19:42 24.42133 63.92542 32732 ft 517 kts 82°
2026-04-30 19:43 24.43077 64.00324 32730 ft 517 kts 82°
2026-04-30 19:44 24.44497 64.12075 32730 ft 516 kts 82°
2026-04-30 19:44 24.45442 64.19859 32730 ft 516 kts 82°
2026-04-30 19:45 24.46390 64.27687 32727 ft 516 kts 82°
2026-04-30 19:45 24.47327 64.35505 32727 ft 516 kts 82°
2026-04-30 19:46 24.48252 64.43318 32725 ft 516 kts 82°
2026-04-30 19:46 24.49174 64.51119 32725 ft 515 kts 82°
2026-04-30 19:47 24.50092 64.58904 32718 ft 515 kts 82°
2026-04-30 19:47 24.51011 64.66726 32718 ft 515 kts 82°
2026-04-30 19:48 24.51920 64.74535 32718 ft 515 kts 82°
2026-04-30 19:48 24.52816 64.82307 32716 ft 515 kts 82°
2026-04-30 19:49 24.53579 64.90134 32721 ft 515 kts 85°
2026-04-30 19:49 24.54408 65.01913 32719 ft 515 kts 85°
2026-04-30 19:50 24.54974 65.09767 32714 ft 515 kts 85°
2026-04-30 19:50 24.55589 65.17627 32715 ft 515 kts 85°
2026-04-30 19:51 24.56216 65.25482 32716 ft 515 kts 85°
2026-04-30 19:51 24.56824 65.33341 32715 ft 515 kts 85°
2026-04-30 19:52 24.57409 65.41142 32717 ft 515 kts 85°
2026-04-30 19:52 24.57997 65.48998 32718 ft 515 kts 85°
2026-04-30 19:53 24.58585 65.56860 32718 ft 516 kts 85°
2026-04-30 19:53 24.59164 65.64686 32715 ft 505 kts 85°
2026-04-30 19:54 24.59725 65.72341 32564 ft 498 kts 85°
2026-04-30 19:54 24.60004 65.76143 31861 ft 498 kts 85°
2026-04-30 19:54 24.60283 65.79947 31085 ft 499 kts 85°
2026-04-30 19:55 24.60560 65.83746 30503 ft 496 kts 85°
2026-04-30 19:55 24.60832 65.87522 29965 ft 492 kts 85°
2026-04-30 19:55 24.61098 65.91222 29382 ft 488 kts 85°
2026-04-30 19:55 24.61365 65.94935 28788 ft 484 kts 85°
2026-04-30 19:56 24.61629 65.98614 28170 ft 481 kts 85°
2026-04-30 19:56 24.61891 66.02282 27408 ft 482 kts 85°
2026-04-30 19:56 24.62153 66.05959 26672 ft 481 kts 85°
2026-04-30 19:56 24.62408 66.09580 25964 ft 481 kts 84°
2026-04-30 19:57 24.62667 66.13299 25251 ft 480 kts 84°
2026-04-30 19:57 24.62921 66.16918 24578 ft 479 kts 84°
2026-04-30 19:57 24.63178 66.20562 23915 ft 478 kts 84°
2026-04-30 19:57 24.63436 66.24247 23248 ft 476 kts 84°
2026-04-30 19:58 24.63690 66.27870 22465 ft 475 kts 84°
2026-04-30 19:58 24.63945 66.31486 21703 ft 474 kts 84°
2026-04-30 19:58 24.64194 66.35048 20960 ft 473 kts 84°
2026-04-30 19:58 24.64443 66.38658 20238 ft 472 kts 84°
2026-04-30 19:59 24.64691 66.42250 19529 ft 471 kts 84°
2026-04-30 19:59 24.64936 66.45838 18836 ft 469 kts 84°
2026-04-30 19:59 24.65419 66.52991 17413 ft 466 kts 84°
2026-04-30 20:00 24.65657 66.56529 16882 ft 459 kts 84°
2026-04-30 20:00 24.65892 66.60008 16247 ft 453 kts 84°
2026-04-30 20:00 24.66122 66.63398 15520 ft 437 kts 84°
2026-04-30 20:00 24.66345 66.66679 14815 ft 422 kts 84°
2026-04-30 20:01 24.66765 66.72932 13444 ft 398 kts 84°
2026-04-30 20:01 24.66961 66.75896 12701 ft 388 kts 84°
2026-04-30 20:01 24.67156 66.78830 11965 ft 379 kts 84°
2026-04-30 20:02 24.67528 66.84480 10544 ft 361 kts 84°
2026-04-30 20:02 24.67709 66.87208 9860 ft 354 kts 84°
2026-04-30 20:03 24.68054 66.92510 8399 ft 341 kts 84°
2026-04-30 20:03 24.68223 66.95088 7680 ft 335 kts 85°
2026-04-30 20:03 24.68391 66.97623 6980 ft 330 kts 85°
2026-04-30 20:03 24.68556 67.00130 6302 ft 325 kts 85°
2026-04-30 20:04 24.68745 67.02553 5595 ft 321 kts 81°
2026-04-30 20:04 24.69256 67.04919 4978 ft 313 kts 69°
2026-04-30 20:04 24.70110 67.07050 4778 ft 299 kts 59°
2026-04-30 20:05 24.72230 67.10989 4394 ft 300 kts 57°
2026-04-30 20:05 24.73310 67.12989 3786 ft 306 kts 56°
2026-04-30 20:05 24.75505 67.17057 2810 ft 309 kts 56°
2026-04-30 20:06 24.76571 67.19040 2865 ft 294 kts 55°
2026-04-30 20:06 24.77622 67.20987 2976 ft 295 kts 56°
2026-04-30 20:06 24.78331 67.22301 3005 ft 296 kts 56°
2026-04-30 20:06 24.79383 67.24250 3008 ft 296 kts 55°
2026-04-30 20:07 24.80435 67.26197 3007 ft 297 kts 56°
2026-04-30 20:07 24.81489 67.28150 3004 ft 298 kts 56°
2026-04-30 20:07 24.83607 67.32082 3005 ft 297 kts 56°
2026-04-30 20:08 24.84661 67.34043 3005 ft 296 kts 56°
2026-04-30 20:08 24.85710 67.35950 3002 ft 280 kts 49°
2026-04-30 20:08 24.86953 67.37477 2952 ft 258 kts 34°
2026-04-30 20:08 24.88431 67.38535 2527 ft 251 kts 15°
2026-04-30 20:09 24.90087 67.39005 2115 ft 243 kts 356°
2026-04-30 20:09 24.91687 67.38849 2001 ft 220 kts 337°
2026-04-30 20:09 24.93952 67.37222 2001 ft 178 kts 304°
2026-04-30 20:10 24.94894 67.34884 2005 ft 162 kts 277°
2026-04-30 20:10 24.94914 67.33650 2026 ft 161 kts 266°
2026-04-30 20:10 24.94663 67.32445 2013 ft 162 kts 259°
2026-04-30 20:11 24.94054 67.30033 2002 ft 165 kts 258°
2026-04-30 20:11 24.93750 67.28831 1982 ft 161 kts 258°
2026-04-30 20:11 24.93460 67.27686 1874 ft 150 kts 258°
2026-04-30 20:12 24.92918 67.25542 1538 ft 143 kts 257°
2026-04-30 20:12 24.92653 67.24497 1371 ft 141 kts 257°
2026-04-30 20:12 24.92388 67.23447 1185 ft 144 kts 256°
2026-04-30 20:13 24.92116 67.22373 1022 ft 146 kts 256°
2026-04-30 20:13 24.91841 67.21289 826 ft 147 kts 255°
2026-04-30 20:13 24.91565 67.20201 628 ft 147 kts 254°
2026-04-30 20:13 24.91290 67.19121 435 ft 146 kts 253°
2026-04-30 20:14 24.91013 67.18036 237 ft 147 kts 253°
2026-04-30 20:14 24.90742 67.16955 123 ft 145 kts 254°
2026-04-30 20:14 24.90531 67.16116 91 ft 51 kts 250°
2026-04-30 20:14 24.90459 67.15844 90 ft 34 kts 253°
2026-04-30 20:15 24.90348 67.15775 89 ft 18 kts 166°
2026-04-30 20:15 24.90335 67.15779 91 ft 0 kts 164°
2026-04-30 20:16 24.90326 67.15782 91 ft 8 kts 164°
2026-04-30 20:16 24.90264 67.15837 91 ft 12 kts 101°
2026-04-30 20:16 24.90277 67.15917 90 ft 10 kts 76°
2026-04-30 20:17 24.90297 67.15995 92 ft 17 kts 74°
2026-04-30 20:17 24.90332 67.16127 92 ft 17 kts 75°
2026-04-30 20:17 24.90360 67.16245 94 ft 15 kts 75°
2026-04-30 20:17 24.90386 67.16349 94 ft 13 kts 74°
2026-04-30 20:18 24.90409 67.16439 93 ft 13 kts 74°
2026-04-30 20:18 24.90443 67.16572 95 ft 19 kts 74°
2026-04-30 20:18 24.90435 67.16693 94 ft 15 kts 139°
2026-04-30 20:18 24.90347 67.16726 95 ft 13 kts 165°
2026-04-30 20:19 24.90259 67.16753 95 ft 13 kts 164°
2026-04-30 20:19 24.90230 67.16819 95 ft 10 kts 78°
2026-04-30 20:19 24.90235 67.16854 96 ft 0 kts 82°